User: anonymous
Location: Unspecified
(0.0000°N, 0.0000°E)
Time: 23:17:46
(UTC+02:00)
Language:

NOAA 12 - Orbit

View from above orbital plane
View from above orbital plane
View from above satellite
View from above satellite

Ground track
Ground track

The orbit data is extracted from the following two-line orbital elements,

1 21263U 91032A   14245.42431007  .00000041  00000-0  35540-4 0  4010
2 21263 098.6599 271.3623 0013692 017.9888 093.0832 14.25676591211564
Epoch (UTC): 02 September 2014 10:11:00
Eccentricity: 0.0013692
inclination: 98.6599°
perigee height: 796 km
apogee height: 816 km
right ascension of ascending node: 271.3623°
argument of perigee: 17.9888°
revolutions per day: 14.25676591
mean anomaly at epoch: 93.0832°
orbit number at epoch: 21156

The dashed part of the orbit path shows where the satellite is in the earth's shadow,  

DLR